This demonstration page uses our WeatherBlox Daily Observations layout. Learn more.

Left ArrowRight Arrow

30.21309, -93.2044

Hourly Observations for July 3, 2021

Temp ( °F °C ) Dew Point ( °F °C ) Humidity (%) Winds ( mph kmh ) Pressure ( in mb ) Visibility ( mi km ) Precip ( " mm )
12:15 am 00:15 Partly Cloudy 76 24.5 74 23.2 92 92 E 3 6 29.94 1014 10 16 0.00 0.00
12:35 am 00:35 Partly Cloudy 76 24.4 74 23.1 92 92 Calm 29.94 1014 10 16 0.00 0.00
12:55 am 00:55 Clear 76 24.4 74 23.2 93 93 Calm 29.94 1014 10 16 0.00 0.00
1:15 am 01:15 Clear 76 24.5 74 23.2 92 92 Calm 29.94 1014 10 16 0.00 0.00
1:35 am 01:35 Clear 76 24.6 74 23.3 93 93 NE 3 6 29.94 1014 10 16 0.00 0.00
1:55 am 01:55 Mostly Cloudy 77 24.9 74 23.6 93 93 N 5 7 29.94 1014 10 16 0.00 0.00
2:15 am 02:15 Cloudy 77 24.8 74 23.6 93 93 N 5 7 29.94 1014 10 16 0.00 0.00
2:35 am 02:35 Partly Cloudy 76 24.6 74 23.1 91 91 N 5 7 29.94 1014 10 16 0.00 0.00
2:55 am 02:55 Partly Cloudy 76 24.6 74 23.2 92 92 N 3 6 29.94 1014 10 16 0.00 0.00
3:15 am 03:15 Cloudy 76 24.6 74 23.3 93 93 NW 3 6 29.94 1014 10 16 0.00 0.00
3:35 am 03:35 Cloudy 77 25 74 23.3 90 90 WNW 5 7 29.94 1014 10 16 0.00 0.00
3:55 am 03:55 Cloudy 77 25.2 74 23.4 90 90 Calm 29.93 1014 10 16 0.00 0.00
4:15 am 04:15 Cloudy 77 25.2 74 23.4 90 90 NNW 3 6 29.94 1014 10 16 0.00 0.00
4:35 am 04:35 Cloudy 77 25 74 23.4 91 91 Calm 29.93 1014 10 16 0.00 0.00
4:55 am 04:55 Cloudy 77 24.9 74 23.6 93 93 N 3 6 29.93 1014 10 16 0.00 0.00
5:15 am 05:15 Cloudy 77 24.9 74 23.5 92 92 N 3 6 29.94 1014 10 16 0.00 0.00
5:35 am 05:35 Mostly Cloudy with Nearby Thunderstorms 77 24.9 74 23.5 92 92 Calm 29.94 1014 10 16 0.00 0.00
6:00 am 06:00 Mostly Clear 75 24 73 23 94 94 Calm 29.94 1014 10 16 0.00 0.00
6:53 am 06:53 Mostly Cloudy 75 24 73 23 94 94 NNE 8 13 29.96 1015 10 16 0.00 0.00
7:55 am 07:55 Cloudy 77 25 73 23 89 89 ENE 7 11 29.97 1015 10 16 0.00 0.00
8:55 am 08:55 Cloudy 79 26 73 23 84 84 ENE 8 13 29.98 1015 10 16 0.00 0.00
9:50 am 09:50 Cloudy 81 27 73 23 79 79 ENE 12 19 29.97 1015 10 16 0.00 0.00
10:50 am 10:50 Cloudy 82 28 73 23 74 74 E 3 6 29.97 1015 10 16 0.00 0.00
11:55 am 11:55 Cloudy 82 28 73 23 74 74 E 3 6 29.97 1015 10 16 0.00 0.00
12:50 pm 12:50 Mostly Cloudy 86 30 75 24 70 70 N 8 13 29.95 1014 10 16 0.00 0.00
1:45 pm 13:45 Mostly Cloudy 88 31 73 23 62 62 NNE 8 13 29.93 1014 10 16 0.00 0.00
2:46 pm 14:46 Mostly Cloudy 84 29 75 24 74 74 SE 9 15 29.91 1013 10 16 0.00 0.00
3:51 pm 15:51 Mostly Cloudy with Thunderstorms 81 27 73 23 79 79 SSW 13 20 29.91 1013 10 16 0.00 0.00
4:15 pm 16:15 Mostly Cloudy with Thunderstorms 79 26 73 23 84 84 WSW 6 9 29.92 1013 2 3 0.00 0.00
4:51 pm 16:51 Mostly Cloudy with Thunderstorms 77 25 73 23 89 89 Calm 29.93 1014 4 6 0.00 0.00
5:45 pm 17:45 Mostly Cloudy with Thunderstorms 77 25 73 23 89 89 WSW 12 19 29.94 1014 2 3 0.00 0.00
6:55 pm 18:55 Mostly Cloudy with Thunderstorms 77 25 73 23 89 89 WNW 9 15 29.94 1014 5 8 0.00 0.00
7:55 pm 19:55 Mostly Cloudy with Rain 75 24 73 23 94 94 NE 6 9 29.96 1015 5 8 0.00 0.00
8:49 pm 20:49 Mostly Cloudy with Light Rain 75 24 73 23 94 94 Calm 29.94 1014 10 16 0.00 0.00
9:46 pm 21:46 Mostly Clear 75 24 73 23 94 94 NW 5 7 29.94 1014 10 16 0.00 0.00
10:15 pm 22:15 Partly Cloudy 76 24.5 73 22.9 91 91 NNE 5 7 29.94 1014 10 16 0.00 0.00
10:35 pm 22:35 Partly Cloudy 76 24.3 74 23.2 94 94 E 5 7 29.95 1014 10 16 0.00 0.00
10:55 pm 22:55 Clear 75 24.1 74 23.1 94 94 NE 5 7 29.95 1014 10 16 0.00 0.00
11:15 pm 23:15 Mostly Cloudy 75 24.1 74 23.2 95 95 NE 3 6 29.95 1014 10 16 0.00 0.00
11:35 pm 23:35 Cloudy 75 24 73 23 94 94 N 3 6 29.94 1014 10 16 0.00 0.00
11:55 pm 23:55 Mostly Cloudy with Mist and Fog 75 24 73 23 94 94 E 5 7 29.93 1014 7 11 0.00 0.00

Powered by AerisWeather